Content
SEND FEEDBACK

Daily
Averages
Monthly
Summary
United States of America

GALAX, VIRGINIA


Home > North America > United States > Virginia
Elevation: 2449 feet     Latitude: 36 40N     Longitude: 080 55W

WEATHER
 
SELECT A DAY
Number of Records: 422,868;   Date Range: 1/4/95 - 9/16/14
 
SHARE

PRINT THIS DATA

[ ← Previous Day ]
WEATHER ALMANAC - FEBRUARY 13, 2013
[ Next Day → ]
[ °C ]   °F
Weather ElementAverageHighLow
Temperature40.3 °F44.6 °F (3:55 pm)35.6 °F (11:55 pm)
Dewpoint38 °F42.8 °F (1:15 pm)32 °F (8:55 pm)
Humidity91.4 %100 % (6:35 am)81 % (8:55 pm)
Barometer29.75 in29.93 in (12:35 am)29.61 in (1:55 pm)
Wind Speed7.8 mph20.7 mph (5:35 pm)
Wind Gust31.1 mph (11:55 pm)
Weather ElementAverage
Visibility7.4 mi
Wind DirectionSSE (172.3 °)

Weather ElementTotal
Precipitation0.60 in
Heating Degree Days24.9 (Base 65)
Averaged from 71 records on February 13, 2013
WEATHER CONDITIONS BREAKOUT
WIND DIRECTION BREAKOUT
WEATHER BY HOUR - FEBRUARY 13, 2013
[ °C ]   °F
Local TimeTemperatureDewpointHumidityBarometerVisibilityWind DirectionWind SpeedGust SpeedPrecipitationEventsConditions
12:35 AM41.0 °F37.4 °F87 %29.93 in10.0 miSW (220°)5.8 mphMostly Cloudy
12:55 AM41.0 °F37.4 °F87 %29.92 in10.0 miSSW (210°)4.6 mphOvercast
1:15 AM41.0 °F37.4 °F87 %29.89 in10.0 miSouth (190°)3.5 mphOvercast
1:35 AM39.2 °F37.4 °F93 %29.89 in10.0 miCalmOvercast
1:55 AM41.0 °F37.4 °F87 %29.88 in10.0 miCalmOvercast
2:15 AM41.0 °F37.4 °F87 %29.88 in10.0 miSSW (200°)5.8 mphOvercast
2:35 AM41.0 °F37.4 °F87 %29.86 in10.0 miCalmOvercast
2:55 AM41.0 °F37.4 °F87 %29.86 in10.0 miCalmOvercast
3:15 AM41.0 °F37.4 °F87 %29.84 in10.0 miCalmOvercast
3:35 AM41.0 °F37.4 °F87 %29.83 in10.0 miCalmOvercast
3:55 AM39.2 °F37.4 °F93 %29.81 in10.0 miCalmMostly Cloudy
4:15 AM39.2 °F37.4 °F93 %29.80 in10.0 miCalmMostly Cloudy
4:35 AM39.2 °F37.4 °F93 %29.79 in10.0 miESE (120°)3.5 mphMostly Cloudy
4:55 AM39.2 °F37.4 °F93 %29.80 in10.0 miCalmOvercast
5:15 AM39.2 °F37.4 °F93 %29.79 in5.0 miSE (130°)3.5 mph0.01 inRainLight Rain
5:35 AM39.2 °F37.4 °F93 %29.80 in4.0 miSSE (150°)3.5 mph0.07 inRainRain
5:55 AM39.2 °F37.4 °F93 %29.78 in2.5 miCalm0.06 inOvercast
6:15 AM39.2 °F37.4 °F93 %29.78 in4.0 miSSE (160°)3.5 mph0.11 inOvercast
6:35 AM39.2 °F39.2 °F100 %29.77 in7.0 miSSE (160°)3.5 mph0.13 inOvercast
6:55 AM39.2 °F39.2 °F100 %29.76 in3.0 miCalm0.01 inOvercast
7:15 AM39.2 °F39.2 °F100 %29.77 in4.0 miCalm0.02 inOvercast
7:35 AM39.2 °F39.2 °F100 %29.77 in3.0 miCalm0.03 inOvercast
7:55 AM39.2 °F39.2 °F100 %29.76 in2.5 miESE (120°)4.6 mph0.01 inOvercast
8:15 AM39.2 °F39.2 °F100 %29.76 in2.5 miCalm0.01 inOvercast
8:35 AM39.2 °F39.2 °F100 %29.77 in4.0 miSouth (170°)4.6 mph0.01 inOvercast
8:55 AM39.2 °F39.2 °F100 %29.75 in1.8 miSSE (160°)6.9 mphOvercast
9:15 AM41.0 °F39.2 °F93 %29.74 in4.0 miSSE (160°)4.6 mph0.02 inOvercast
9:35 AM41.0 °F39.2 °F93 %29.74 in4.0 miCalm0.02 inOvercast
9:55 AM41.0 °F39.2 °F93 %29.72 in4.0 miCalmOvercast
10:15 AM41.0 °F39.2 °F93 %29.73 in4.0 miSouth (170°)3.5 mphOvercast
10:35 AM41.0 °F39.2 °F93 %29.73 in5.0 miSouth (180°)5.8 mphOvercast
10:55 AM41.0 °F39.2 °F93 %29.73 in4.0 miSouth (180°)6.9 mphOvercast
11:15 AM41.0 °F39.2 °F93 %29.72 in2.5 miSouth (170°)12.7 mph17.3 mphOvercast
11:35 AM41.0 °F39.2 °F93 %29.71 in3.0 miSouth (170°)10.4 mphOvercast
11:55 AM41.0 °F39.2 °F93 %29.69 in4.0 miSouth (170°)11.5 mphOvercast
12:15 PM42.8 °F41.0 °F93 %29.68 in7.0 miSouth (170°)8.1 mphOvercast
12:35 PM41.0 °F39.2 °F93 %29.66 in7.0 miSouth (180°)9.2 mphOvercast
12:55 PM42.8 °F41.0 °F93 %29.63 in10.0 miSouth (170°)11.5 mph19.6 mphOvercast
1:15 PM42.8 °F42.8 °F100 %29.63 in7.0 miSSE (160°)10.4 mphOvercast
1:35 PM42.8 °F39.2 °F87 %29.62 in3.0 miSouth (170°)6.9 mphOvercast
1:55 PM42.8 °F39.2 °F87 %29.61 in3.0 miSouth (170°)8.1 mphOvercast
2:15 PM42.8 °F41.0 °F93 %29.61 in4.0 miSouth (180°)4.6 mphOvercast
2:35 PM42.8 °F41.0 °F93 %29.61 in4.0 miSSW (200°)9.2 mphOvercast
2:55 PM42.8 °F41.0 °F93 %29.63 in4.0 miSSW (210°)10.4 mph0.01 inRainLight Rain
3:15 PM42.8 °F41.0 °F93 %29.61 in7.0 miSouth (190°)6.9 mph0.02 inRainLight Rain
3:35 PM42.8 °F42.8 °F100 %29.61 in10.0 miSouth (190°)9.2 mph0.02 inMostly Cloudy
3:55 PM44.6 °F42.8 °F93 %29.61 in10.0 miSouth (190°)8.1 mphOvercast
4:15 PM44.6 °F42.8 °F93 %29.61 in10.0 miSouth (190°)8.1 mphOvercast
4:35 PM44.6 °F42.8 °F93 %29.62 in7.0 miSW (220°)5.8 mphRainLight Rain
4:55 PM44.6 °F42.8 °F93 %29.63 in10.0 miWSW (240°)5.8 mphOvercast
5:15 PM44.6 °F42.8 °F93 %29.64 in7.0 miWest (270°)4.6 mph0.02 inRainLight Rain
5:35 PM44.6 °F42.8 °F93 %29.66 in7.0 miWest (280°)20.7 mph28.8 mph0.02 inRainLight Rain
5:55 PM42.8 °F39.2 °F87 %29.68 in10.0 miWNW (290°)20.7 mph27.6 mphOvercast
6:15 PM41.0 °F37.4 °F87 %29.70 in10.0 miWest (280°)15.0 mph20.7 mphOvercast
6:35 PM39.2 °F35.6 °F87 %29.71 in10.0 miWNW (290°)8.1 mph20.7 mphOvercast
6:55 PM37.4 °F35.6 °F93 %29.74 in10.0 miWest (280°)13.8 mph20.7 mphOvercast
7:15 PM37.4 °F33.8 °F87 %29.75 in10.0 miWNW (300°)13.8 mph23.0 mphOvercast
7:35 PM37.4 °F33.8 °F87 %29.76 in10.0 miWNW (300°)15.0 mph21.9 mphOvercast
7:55 PM37.4 °F33.8 °F87 %29.76 in10.0 miWNW (300°)16.1 mph23.0 mphScattered Clouds
8:15 PM37.4 °F33.8 °F87 %29.76 in10.0 miWNW (300°)17.3 mph23.0 mphClear
8:35 PM37.4 °F33.8 °F87 %29.76 in10.0 miWNW (300°)16.1 mph24.2 mphMostly Cloudy
8:55 PM37.4 °F32.0 °F81 %29.78 in10.0 miNW (320°)13.8 mph19.6 mphOvercast
9:15 PM37.4 °F33.8 °F87 %29.78 in10.0 miNW (310°)13.8 mph20.7 mphOvercast
9:35 PM37.4 °F32.0 °F81 %29.78 in10.0 miNW (310°)19.6 mph27.6 mphOvercast
9:55 PM37.4 °F32.0 °F81 %29.79 in10.0 miWNW (300°)13.8 mphOvercast
10:15 PM37.4 °F33.8 °F87 %29.80 in10.0 miWest (280°)8.1 mphOvercast
10:35 PM37.4 °F33.8 °F87 %29.80 in10.0 miWNW (300°)13.8 mph19.6 mphOvercast
10:55 PM37.4 °F33.8 °F87 %29.80 in10.0 miWNW (300°)17.3 mph21.9 mphOvercast
11:15 PM37.4 °F33.8 °F87 %29.80 in10.0 miWNW (300°)18.4 mph26.5 mphOvercast
11:35 PM37.4 °F33.8 °F87 %29.81 in10.0 miWNW (300°)20.7 mph28.8 mphOvercast
11:55 PM35.6 °F33.8 °F93 %29.81 in10.0 miWNW (300°)20.7 mph31.1 mphOvercast
Hourly data recorded from KHLX, located miles away from Galax, Virginia







STORIES FROM OUR PARTNERS